Simultaneous Nadir Overpasses (SNOs) Predictions

Prediction of SNOs between NOAA-20 and AQUA Satellite Orbit:

Table of predicted SNOs for the next 14.0 days since TLE Epoch: 8/6/2022
Index Date (NOAA-20) Time (NOAA-20) Lat,Lon (NOAA-20) SZA (NOAA-20 ) Date (AQUA) Time (AQUA) Lat,Lon (AQUA) SZA (AQUA ) Distance(km) Time Diff (sec)
1 08/08/2022 14:41:31 78.61,-149.92 78.33 08/08/2022 14:42:24 78.60,-150.01 78.31 2.04 53
2 08/08/2022 15:32:08 -78.93, 19.42 102.15 08/08/2022 15:31:43 -78.93, 19.45 102.13 0.67 25
3 08/11/2022 06:07:47 -78.32, 156.85 100.51 08/11/2022 06:08:57 -78.32, 156.94 100.58 2.19 70
4 08/11/2022 06:58:18 78.82, -32.79 78.76 08/11/2022 06:58:10 78.83, -32.71 78.75 2.05 8
5 08/13/2022 22:24:25 -78.84, -84.22 100.51 08/13/2022 22:24:35 -78.84, -84.25 100.51 0.65 10
6 08/13/2022 23:14:58 79.24, 85.90 78.87 08/13/2022 23:13:50 79.24, 85.83 78.94 1.46 68
7 08/16/2022 13:50:32 78.84,-135.75 80.28 08/16/2022 13:50:59 78.83,-135.85 80.28 2.31 27
8 08/16/2022 14:41:11 -79.08, 33.19 100.09 08/16/2022 14:40:20 -79.08, 33.25 100.06 1.31 51
9 08/19/2022 05:16:45 -78.67, 171.63 98.66 08/19/2022 05:17:29 -78.67, 171.61 98.68 0.54 44



Historial Predications of SNOs between NOAA-20 and AQUA
